Weather Roundup
Issued by NWS

Home | Current Version | Previous Version | Text Only | Print | Product List | Glossary On
Versions: 1 2 3 4 5 6 7 8 9 10 11 12 13 14 15 16 17 18 19 20 21 22 23 24 25 26 27 28 29 30 31 32 33 34 35 36 37 38 39 40 41 42 43 44 45 46 47 48 49 50
263
NZUS93 KARX 222110
HRRWXR

CURRENT HOURLY OBSERVATIONS ACROSS
MUCH OF THE UPPER MISSISSIPPI VALLEY
NATIONAL WEATHER SERVICE LA CROSSE WI
400 PM CDT SAT APR 22 2017


...SOUTHEAST MINNESOTA...


CITY           SKY/WX    TMP DP  RH WIND       PRES   REMARKS
ROCHESTER      SUNNY     65  34  31 VRB5      30.18F
ROCHESTER/MAYO FAIR      64  32  29 W6        30.18F
WINONA         SUNNY     64  32  29 N6        30.17F
AUSTIN         SUNNY     63  28  27 CALM      30.18F
ALBERT LEA     SUNNY     64  28  25 W7        30.18F
DODGE CENTER   SUNNY     64  32  29 W5        30.18F
PRESTON        SUNNY     62  31  31 NW9       30.19F
OWATONNA       SUNNY     66  30  26 W6        30.17F
FARIBAULT      SUNNY     66  36  32 SW9       30.18F
$$

...ELSEWHERE IN MINNESOTA...


CITY           SKY/WX    TMP DP  RH WIND       PRES   REMARKS
MINNEAPOLIS    MOSUNNY   68  34  28 W9G18     30.15F
INTNL FALLS    CLOUDY    48  37  65 NW15      30.12S
DULUTH         MOSUNNY   65  36  34 W20       30.06F
RED WING       SUNNY     68  28  22 NW8       30.15F
REDWOOD FALLS  SUNNY     68  32  26 NW10      30.16F
MANKATO        SUNNY     67  37  33 NW12      30.18F
WORTHINGTON    SUNNY     65  35  33 VRB7      30.20F
FAIRMONT       SUNNY     65  33  30 CALM      30.19F
$$

...SOUTHWEST WISCONSIN...


CITY           SKY/WX    TMP DP  RH WIND       PRES   REMARKS
LA CROSSE      SUNNY     67  21  17 NW3       30.17F
PRAIRIE DU CHI SUNNY     64  21  19 NW7       30.17F
BOSCOBEL       SUNNY     67  23  19 VRB3      30.16F
LONE ROCK      SUNNY     66  23  19 N6        30.16F
PLATTEVILLE    SUNNY     62  30  29 N8        30.18F
FORT MC COY    SUNNY     65  29  25 SW8       30.17F
MAUSTON-NEW LI CLEAR     64  29  27 W5        30.15F
VIROQUA        FAIR      63  25  23 CALM      30.17F
WIS DELLS      SUNNY     63  21  20 CALM      30.16F
$$

...ELSEWHERE IN WISCONSIN...


CITY           SKY/WX    TMP DP  RH WIND       PRES   REMARKS
MILWAUKEE      MOSUNNY   57  25  29 E8        30.19F
MADISON        MOSUNNY   62  27  26 CALM      30.16F
GREEN BAY      SUNNY     63  33  32 SW8       30.14F
EAU CLAIRE     SUNNY     66  29  24 VRB6G18   30.14F
BLACK RVR FLS  FAIR      66  18  15 NW6       30.16F
MEDFORD        SUNNY     61  33  35 SW9G18    30.14F
WAUSAU         MOSUNNY   63  31  30 W12       30.13F
WIS RAPIDS     SUNNY     65  25  22 VRB6      30.16F
MARSHFIELD     CLOUDY    63  27  25 W8        30.14F
RICE LAKE      SUNNY     66  32  27 SW12G17   30.15F
$$

...NORTHEAST IOWA...


CITY           SKY/WX    TMP DP  RH WIND       PRES   REMARKS
WATERLOO       SUNNY     65  29  25 VRB7      30.17F
DUBUQUE        SUNNY     62  31  31 NE7       30.18F
DECORAH        SUNNY     63  28  27 N7        30.17F
MASON CITY     SUNNY     66  29  24 NE5       30.19F
CHARLES CITY   SUNNY     63  25  23 CALM      30.19F
OELWEIN        SUNNY     63  28  27 VRB6G13   30.18F
$$

...ELSEWHERE IN IOWA...


CITY           SKY/WX    TMP DP  RH WIND       PRES   REMARKS
DES MOINES     PTSUNNY   67  26  21 N10       30.17F
IOWA CITY      SUNNY     65  29  25 E12G20    30.17F
FORT DODGE     SUNNY     64  34  32 NW8       30.20F
MARSHALLTOWN   SUNNY     65  27  23 VRB6      30.17F
CEDAR RAPIDS   SUNNY     64  28  25 E8        30.16F
$$

...NORTHERN ILLINOIS...


CITY           SKY/WX    TMP DP  RH WIND       PRES   REMARKS
CHICAGO-OHARE  MOSUNNY   59  22  24 NE14      30.16F
CHICAGO-MIDWAY PTSUNNY   58  24  27 NE15G23   30.15F
MOLINE         SUNNY     65  35  33 NE8       30.15F
ROCKFORD       MOSUNNY   64  29  26 NE7       30.17F
PEORIA         SUNNY     64  31  28 NE14G23   30.10F
$$

NOTE: "FAIR" INDICATES FEW OR NO CLOUDS BELOW 12,000 FEET WITH NO
SIGNIFICANT WEATHER AND/OR OBSTRUCTIONS TO VISIBILITY. WIND
SPEEDS ARE IN MILES-PER-HOUR.




USA.gov is the U.S. government's official web portal to all federal, state and local government web resources and services.